[Date Prev][Date Next][Thread Prev][Thread Next] - [Date Index][Thread Index][Author Index]

2 Line ISS Keps 5-25



ISS
1 25544U 98067A   01145.24803802  .00035515  00000-0  42421-3 0    17
2 25544  51.5694 204.4351 0017893  84.1916 320.5978 15.60483190143490

----
Via the sarex mailing list at AMSAT.ORG courtesy of AMSAT-NA.
To unsubscribe, send "unsubscribe sarex" to Majordomo@amsat.org



AMSAT Top AMSAT Home